Location: Aulus
(42.7909°N, 1.3399°E)
Time: 06:45:48
(UTC+00:00)

Cosmos 1538 Rocket - Pass Details

Date: 19 May 2025
Orbit: 749 x 788 km, 74.0° (Epoch: 18 June)

Event Time Altitude Azimuth Distance (km) Brightness Sun altitude
Exits shadow 22:50:38 60° 85° (E) 863 4.1 -25.7°
Drops below altitude 10° 22:55:22 10° 27° (NNE) 2,278 7.0 -25.9°
Sets 22:57:45 0° 24° (NNE) 3,205 8.0 -26.0°
